Zurück zum Katalog

YAOGAN-43 O1B

AktivMilitärVLEO
NORAD 60459·PAYLOAD·🇨🇳 China

Gestartet Aug 16, 2024 von Xichang Satellite Launch Center

Loading…

Nächste Überflüge (nächste 24 Stunden)

TLE

AktuellSource: Space-Track

Epoche: Sep 14, 2026, 12:42 UTC

1 60459U 24148B   26257.52928755  .00010202  00000-0  26797-3 0  9997
2 60459  34.9922 280.1835 0007690 304.1574  55.8416 15.37777193116184

Verfolge YAOGAN-43 O1B in Echtzeit mit AllMySat

Download on the App Store